Regional Weather Roundup
Issued by NWS Wakefield, VA

Home | Current Version | Previous Version | Graphics & Text | Print | Product List | Glossary On
Versions: 1 2 3 4 5 6 7 8 9 10 11 12 13 14 15 16 17 18 19 20 21 22 23 24 25 26 27 28 29 30 31 32 33 34 35 36 37 38 39 40 41 42 43 44 45 46 47 48 49 50
000
ASUS41 KAKQ 272110
RWRAKQ

REGIONAL WEATHER ROUNDUP
NATIONAL WEATHER SERVICE WAKEFIELD VA
400 PM EST FRI FEB 27 2015

Note: "fair" indicates few or no clouds below 12,000 feet with no
significant weather and/or obstructions to visibility. * = Denotes
station may not report precipitation (e.g., rain,snow,etc.),
thunder or fog.

VAZ042-051-052>054-056-272200-
NORTHERN VIRGINIA

CITY           SKY/WX    TMP DP  RH WIND       PRES   REMARKS
WASH NATIONAL  MOSUNNY   34  11  38 NW15G21   30.50R WCI  24
DULLES         MOSUNNY   30   8  39 N12       30.48R WCI  20
FORT BELVOIR   SUNNY     33   9  36 N8        30.49R
QUANTICO       MOSUNNY   34  11  38 N12       30.50R
FREDERICKSBRG* CLOUDY    36  14  40 NW6       30.47R
STAFFORD*      SUNNY     34  10  36 NE6       30.51R
WARRENTON      SUNNY     35  18  51 N9        30.46R
CULPEPER*      SUNNY     36  10  35 NE6       30.46R
MANASSAS*      SUNNY     32  16  51 N9G17     30.48R
LEESBURG*      SUNNY     32  12  43 N7        30.48R
WINCHESTER     SUNNY     32   3  29 W13G18    30.44R WCI  22
FRONT ROYAL*   FAIR      32   9  37 NW7       30.43R
LURAY*         FAIR      36  14  41 NW10      30.41R
$$

VAZ048-049-060>072-079>083-272200-
CENTRAL AND SOUTH CENTRAL VIRGINIA

CITY           SKY/WX    TMP DP  RH WIND       PRES   REMARKS
RICHMOND       PTSUNNY   37  22  54 NE7       30.44R
CHESTERFIELD*  CLOUDY    37  18  44 NE6       30.45R
PETERSBURG*    MOSUNNY   37  28  71 NE9       30.44R
HANOVER        PTSUNNY   35  17  47 NE5       30.46R
TAPPAHANNOCK*  SUNNY     35  11  38 NW5       30.47R
QUINTON*       MOCLDY    34  23  64 N5        30.46R
CHARLOTTSVILLE PTSUNNY   37  13  37 S7        30.40R
GORDONSVILLE*  CLOUDY    34  15  45 NE7       30.42R
ORANGE*        CLOUDY    34  16  47 CALM      30.45R
LOUISA*        PTSUNNY   37  18  44 NE5       30.41S
BUMPASS*       CLOUDY    35  16  46 NE3       30.44R
FARMVILLE*     SUNNY     48  13  24 W3        30.39S
CREWE*         FAIR      40  23  49 N6G16     30.40S
FORT PICKETT*  FAIR      40  19  42 NW6       30.39F
CHASE CITY*    FAIR      42  19  40 NW9       30.40S
CLARKSVILLE*   FAIR      41  19  42 N7        30.40S
SOUTH HILL*    SUNNY     40  17  39 NW8       30.45S
LAWRENCEVILLE* FAIR      42  20  40 CALM      30.39R
EMPORIA*       SUNNY     41  28  60 NW6       30.42R
$$

VAZ088>098-272200-
SOUTHEAST VIRGINIA

CITY           SKY/WX    TMP DP  RH WIND       PRES   REMARKS
NORFOLK        MOSUNNY   32  24  72 N16       30.44R WCI  21
VIRGINIA BEACH PTSUNNY   35  25  66 N12       30.43S
NORFOLK NAVAL  PTSUNNY   34  24  67 N17       30.47R WCI  23
WEST POINT*    FAIR      36  20  52 N5        30.48S
SALUDA*        CLOUDY    31  20  64 N6        30.47R
NEWPORT NEWS   CLOUDY    35  26  69 NE10      30.46R
LANGLEY AFB    CLOUDY    32  26  77 NE13      30.46R WCI  22
FORT EUSTIS    CLOUDY    34  27  76 NE9       30.44R
WILLIAMSBURG*  MOSUNNY   36  30  80 NE3       30.47R
HR EXEC AP*    FAIR      34  25  69 NE12      30.47R
FRANKLIN*      MOSUNNY   36  26  68 NE13      30.43R
WAKEFIELD      PTSUNNY   37  26  64 NE8       30.44R
$$

VAZ020-022-025-037-045-272200-
WEST CENTRAL AND SOUTHWEST VIRGINIA

CITY           SKY/WX    TMP DP  RH WIND       PRES   REMARKS
STAUNTON*      SUNNY     34  12  40 NE5       30.39S
WAYNESBORO*    FAIR      34   8  34 W8        30.35S
HOT SPRINGS VA SUNNY     21   3  47 W10G21    30.22S WCI  10
LYNCHBURG      SUNNY     37  11  34 W7        30.40S
DANVILLE       SUNNY     41  18  39 NW6       30.40S
SOUTH BOSTON*  FAIR      40  15  36 N8        30.41S
MARTINSVILLE   SUNNY     41  15  34 N7        30.41R
ROANOKE        MOSUNNY   34  12  40 NW10      30.42R
BLACKSBURG     SUNNY     28  11  48 NW10G16   30.39S WCI  19
DUBLIN*        SUNNY     31  14  49 W9        30.40R
MARION*        MOSUNNY   28  13  54 W10G17    30.38R WCI  18
HILLSVILLE*    SUNNY     29  15  56 NW15      30.32R WCI  18
RICHLANDS*     MOCLDY    25  10  52 N5        30.38R
WISE*          MOSUNNY   27  10  50 NE8       30.39R
ABINGDON*      PTSUNNY   32  15  49 W6        30.39S
$$

MDZ021>025-VAZ099-100-272200-
SOUTHERN MARYLAND AND THE DELMARVA PENINSULA

CITY           SKY/WX    TMP DP  RH WIND       PRES   REMARKS
PATUXENT RIVER MOSUNNY   30  20  66 NE9       30.47R
BAY BRIDGE APT   N/A     32  14  47 N10       30.48R WCI  24
LEONARDTOWN    MOSUNNY   32  21  64 CALM      30.47R
DOVER          SUNNY     30  15  52 NW9G18    30.47R
GEORGETOWN     PTSUNNY   47  16  29 NW7       30.46S
EASTON         SUNNY     32  18  55 N12       30.50R WCI  23
CAMBRIDGE      MOSUNNY   34  19  55 NW9       30.46S
SALISBURY      CLOUDY    32  22  66 NW10      30.47R HAZE    WCI  24
OCEAN CITY     CLOUDY    30  24  78 NE3       30.47R HAZE
WALLOPS ISLAND LGT SNOW  30  25  81 E6        30.47R
ACCOMACK*      CLOUDY    32  23  69 NW12      30.46S WCI  23
$$

NCZ012>017-030>032-272200-
NORTH CENTRAL AND EASTERN NORTH CAROLINA

CITY           SKY/WX    TMP DP  RH WIND       PRES   REMARKS
ROANOKE RAPIDS FAIR      45  23  42 N8        30.40R
RALEIGH        MOSUNNY   44  22  41 N6        30.39R
ELIZABETH CITY CLOUDY    39  27  62 NE12      30.41R
AHOSKIE*       SUNNY     45  22  40 N6        30.40S
EDENTON*       MOSUNNY   46  30  52 NW6       30.40R
CURRITUCK*     PTSUNNY   38  24  56 NE8G17    30.43R
KILL DEVIL HLS SUNNY     37  30  74 N9G16     30.40R
MANTEO         SUNNY     37  28  70 N12       30.42R
CAPE HATTERAS  PTSUNNY   39  30  70 NE10G18   30.39R
TARBORO*       FAIR      48  24  39 N5        30.40S
GOLDSBORO      SUNNY     48  32  54 NE9       30.36S
WASHINGTON     SUNNY     46  29  53 N6        30.39S
GREENVILLE     SUNNY     48  28  46 N5        30.39S
NEW BERN       SUNNY     50  30  46 N8        30.39R
WILMINGTON     PTSUNNY   51  32  48 NE7       30.36F
$$

VAZ048-272200-
ELSEWHERE

CITY           SKY/WX    TMP DP  RH WIND       PRES   REMARKS
HARRISBURG PA  MOSUNNY   27  10  49 N9        30.47R
BALTIMORE      MOSUNNY   30  10  43 NW15G21   30.48R WCI  19
ANNAPOLIS      SUNNY     30  12  47 NW10      30.48R WCI  21
ANDREWS AFB    SUNNY     31  11  42 NW13      30.47R WCI  22
PHILADELPHIA   MOSUNNY   30   8  39 NW9       30.46R
HENDERSON NC   MOSUNNY   41  17  37 CALM      30.40S
GREENSBORO     MOSUNNY   42  21  43 NW5       30.36R
ROCKY MOUNT    SUNNY     47  26  44 N9        30.39R
$$

VAZ100-272200-
MARINE

STATION/POSITION TIME  TEMP    WIND        PRES    WAVE   SWELL
                       AIR SEA DIR/SP/G            HT/PER HT/PER
                 (UTC) (F)     (DEG/KT/KT) (MB)    (FT/S) (FT/S)
BRANDYWINE LGT   2100   28 30  340/  7/ 10 1031.5S
CAPE MAY NJ      2100   28 33  310/  6/ 12 1031.1R
LEWES DE         2100   28 30  340/  7/  9 1031.5R
15NM E FENWICK I 2100   29 36              1031.0R   5/ 9
OCEAN-CITY-INLET 2100   30 32   30/  3/  5 1031.0S
WACHAPREAGUE VA  2100   29 33  350/  5/ 11 1031.4R
THOMAS POINT MD  2100   31 32  330/  8/  9 1033.2R
COVE POINT MD    2100   28      40/  9/ 10 1031.6R
SOLOMONS ISLAND  2100      33                N/A
BISHOPS HEAD MD  2100   31 31  360/  6/  9 1031.3R
CAMBRIDGE MD     2100   30 32  310/  7/  9 1031.6R
LEWISETTA VA     2100   31 32              1031.7R
RAPPAHANNOCK LGT 2100          360/ 16/ 17 1032.0R
STINGRAY PT      2100   30      30/ 12/ 14   N/A
YORK RVR RNG VA  2100   32      40/ 12/ 13 1030.7R
YORKTOWN VA      2100   30 33   20/ 10/ 12 1031.1R
DOMINION TERM VA 2100   33      40/  7/ 13 1031.0S
KIPTOPEKE VA     2100      37  360/ 11/ 14   N/A
CHES BAY BRIDGE  2100   31 33  360/ 15/ 19 1030.6S
CAPE HENRY VA    2100   32     350/ 15/ 18 1029.4F
CHESAPEAKE LGHT  2000   33     360/ 13/ 14 1031.1R
WILLOUBY STN VA  2100   31      30/ 16/ 18 1031.5S
S CRANEY ISL VA  2100           40/ 16/ 19 1030.7F
CAPE HENRY BUOY  2100      35                N/A     4/11   2/11
1ST LANDING BUOY 2100   32     360/ 16/ 17 1030.6S
OFFSHORE WE BUOY 2100      38                N/A     5/ 9   5/ 9
64NM E OF VA BCH 2100   41 61  360/ 16/ 19 1029.1R   6/ 8   5/ 8
DUCK PIER NC     2100   35 35   20/ 16/ 19 1028.9R
44100 DUCK FRF   2000      36                N/A     6/11   3/11
44056 DUCK FRF   2100      35                N/A     5/11   2/11
OREGON INLET NC  2100   38 38  360/  9/ 14 1029.7R
HATTERAS NC      2100   39 40   20/ 15/ 18 1029.3S
CAPE LOOKOUT NC  2100   45      20/ 10/ 12 1028.6R
$$


USA.gov is the U.S. government's official web portal to all federal, state and local government web resources and services.